Location: NJAA Observatory
(40.6819°N, 74.8979°W)
Time: 18:09:27
(UTC-04:00)

Cosmos 2237 Rocket - Visible Passes

Search period start: 21 September 2014 00:00
Search period end: 01 October 2014 00:00
Orbit: 834 x 851 km, 71.0° (Epoch: 20 September)

Date Brightness Start Highest point End Pass type
(mag) Time Alt. Az. Time Alt. Az. Time Alt. Az.
21 Sep 4.4 02:49:13 20° NNE 02:49:13 20° NNE 02:50:54 10° NNE visible
21 Sep 4.4 04:31:03 12° NW 04:31:03 12° NW 04:32:28 10° NNW visible
22 Sep 4.6 02:34:57 17° NNE 02:34:57 17° NNE 02:36:10 10° NNE visible
22 Sep 4.5 04:16:47 12° NNW 04:16:47 12° NNW 04:17:55 10° NNW visible
23 Sep 4.9 02:20:39 14° NNE 02:20:39 14° NNE 02:21:25 10° NNE visible
23 Sep 4.5 04:02:30 12° NNW 04:02:30 12° NNW 04:03:20 10° NNW visible
24 Sep 5.0 02:06:21 12° NNE 02:06:21 12° NNE 02:06:41 10° NNE visible
24 Sep 4.6 03:48:11 11° NNW 03:48:11 11° NNW 03:48:45 10° NNW visible
25 Sep 4.7 03:33:51 11° NNW 03:33:51 11° NNW 03:34:09 10° NNW visible
26 Sep 4.8 03:19:30 10° NNW 03:19:30 10° NNW 03:19:31 10° NNW visible
